Bookmark and Share
Track history (hours):
 

Agia Marina

Last reported at 2014-Apr-20 05:05 UTC. Time now 2014-Apr-20 08:45 UTC.
Position N 38°02' E 023°36'.

Length 59 m; draft 2.5 m.

Type: Cargo ship. MMSI: 237042500.

NotesDate/timePositionNaut miles runAvg speedWind from/ knotsBaromVisibWave heightAir tempDewpointWater temp
2014-Apr-20 05:05N 38°02' E 023°36'0 0.0
2014-Apr-20 03:13N 38°02' E 023°36'0 0.0
2014-Apr-20 02:09N 38°02' E 023°36'0 0.0
2014-Apr-19 22:05N 38°02' E 023°36'0 0.0
2014-Apr-19 20:23N 38°02' E 023°36'0 0.0
2014-Apr-18 02:15N 38°02' E 023°36'0 0.0
2014-Apr-18 01:33N 38°02' E 023°36'0 0.0
2014-Apr-18 00:33N 38°02' E 023°36'0 0.0
2014-Apr-17 23:31N 38°02' E 023°36'0 0.0
2014-Apr-17 22:17N 38°02' E 023°36'0 0.0
2014-Apr-17 21:28N 38°02' E 023°36'0 0.0
2014-Apr-17 20:33N 38°02' E 023°36'0 0.0
2014-Apr-17 19:33N 38°02' E 023°36'0 0.0
2014-Apr-17 18:33N 38°02' E 023°36'0 0.0
2014-Apr-17 16:14N 38°02' E 023°36'0 0.0
2014-Apr-17 15:20N 38°02' E 023°36'0 0.0
2014-Apr-16 20:03N 38°02' E 023°36'3 0.3
2014-Apr-16 10:33N 38°01' E 023°33'6 5.9
2014-Apr-16 09:32N 37°58' E 023°26'6 6.1
2014-Apr-16 08:33N 37°52' E 023°26'5 5.2
2014-Apr-16 07:33N 37°47' E 023°26'2 0.5
2014-Apr-16 04:11N 37°46' E 023°25'5 7.5
2014-Apr-16 03:32N 37°50' E 023°24'8 7.2
2014-Apr-16 02:25N 37°58' E 023°26'6 6.0
2014-Apr-16 01:25N 38°01' E 023°33'3 0.4
2014-Apr-15 18:11N 38°02' E 023°36'0 0.0
2014-Apr-15 17:09N 38°02' E 023°36'0 0.0
2014-Apr-15 16:21N 38°02' E 023°36'0 0.0
2014-Apr-15 15:05N 38°02' E 023°36'  
2014-Apr-12 14:14N 37°59' E 023°33'5 6.9
2014-Apr-12 13:33N 37°55' E 023°36'8 8.0
2014-Apr-12 12:33N 37°48' E 023°41'8 8.0
2014-Apr-12 11:33N 37°41' E 023°46'27 7.7
2014-Apr-12 08:05N 37°30' E 024°17'8 7.7
2014-Apr-12 07:07N 37°30' E 024°27'7 7.5
2014-Apr-12 06:14N 37°30' E 024°35'7 7.3
2014-Apr-12 05:14N 37°31' E 024°44'12 7.4
2014-Apr-12 03:32N 37°31' E 024°60'7 7.6
2014-Apr-12 02:33N 37°31' E 025°09'8 7.7
2014-Apr-12 01:32N 37°31' E 025°19'7 7.1
2014-Apr-12 00:33N 37°34' E 025°27'7 7.0
2014-Apr-11 23:33N 37°37' E 025°35'  

Dump ship's entire track history

sailing weather and tide predictions

Agia Marina — SX5375 — position and weather